This demonstration page uses our WeatherBlox Daily Observations layout. Learn more.

Left ArrowRight Arrow

Hourly Observations for January 25, 2016

Temp ( °F °C ) Dew Point ( °F °C ) Humidity (%) Winds ( mph kmh ) Pressure ( in mb ) Visibility ( mi km ) Precip ( " mm )
12:54 am 00:54 Cloudy with Mist and Fog 32 0 30 -1.1 92 92 NNE 7 11 29.70 1006 4 6 0.00 0.00
1:54 am 01:54 Cloudy with Mist and Fog 31 -0.6 28 -2.2 89 89 N 8 13 29.69 1005 4 6 0.00 0.00
2:54 am 02:54 Cloudy with Mist and Fog 31 -0.6 29 -1.7 92 92 N 9 15 29.68 1005 4 6 0.00 0.00
3:54 am 03:54 Cloudy with Mist and Fog 31 -0.6 28 -2.2 89 89 N 10 17 29.68 1005 4 6 0.00 0.00
4:54 am 04:54 Cloudy with Mist and Fog 31 -0.6 27 -2.8 85 85 N 15 24 29.68 1005 4 6 0.00 0.00
5:27 am 05:27 Cloudy with Mist and Fog 30 -1.1 27 -2.8 88 88 N 15 24 29.71 1006 4 6 0.00 0.00
5:41 am 05:41 Cloudy with Mist and Fog 30 -1.1 27 -2.8 88 88 N 14 22 29.71 1006 4 6 0.00 0.00
5:54 am 05:54 Cloudy with Mist and Fog 31 -0.6 27 -2.8 85 85 N 12 19 29.69 1005 4 6 0.00 0.00
6:17 am 06:17 Cloudy with Mist and Fog 31 -0.6 28 -2.2 89 89 N 15 24 29.74 1007 4 6 0.00 0.00
6:54 am 06:54 Cloudy with Mist and Fog 31 -0.6 28 -2.2 89 89 NNW 15 24 29.70 1006 5 8 0.00 0.00
7:46 am 07:46 Cloudy with Mist and Fog 30 -1 28 -2 93 93 NNW 17 28 29.77 1008 2 3 0.00 0.00
7:54 am 07:54 Cloudy with Mist and Fog 30 -1.1 28 -2.2 92 92 NNW 20 31 29.75 1008 2 3 0.00 0.00
8:24 am 08:24 Cloudy with Light Freezing Rain 30 -1.1 28 -2.2 92 92 NNW 20 31 29.77 1008 2 3 0.00 0.03
8:54 am 08:54 Cloudy with Light Freezing Rain 30 -1.1 28 -2.2 92 92 NNW 17 28 29.75 1008 2 3 0.00 0.03
9:29 am 09:29 Cloudy with Mist and Fog 30 -1.1 27 -2.8 88 88 NNW 21 33 29.80 1009 3 4 0.00 0.03
9:37 am 09:37 Cloudy with Mist and Fog 30 -1.1 27 -2.8 88 88 NNW 21 33 29.80 1009 3 5 0.00 0.03
9:54 am 09:54 Cloudy with Mist and Fog 30 -1.1 27 -2.8 88 88 NNW 21 33 29.78 1008 4 6 0.00 0.03
10:50 am 10:50 Cloudy with Mist and Fog 30 -1 27 -3 86 86 N 23 37 29.83 1010 6 10 0.00 0.00
10:54 am 10:54 Cloudy with Mist and Fog 30 -1.1 27 -2.8 88 88 N 21 33 29.80 1009 6 10 0.00 0.00
11:28 am 11:28 Windy with Snow Likely 30 -1 27 -3 86 86 NNW 21 33 29.83 1010 2 3 0.00 0.00
11:45 am 11:45 Cloudy with Snow 30 -1.1 27 -2.8 88 88 NNW 15 24 29.85 1011 1 1 0.01 0.25
11:54 am 11:54 Cloudy with Snow 30 -1.1 27 -2.8 88 88 NNW 14 22 29.83 1010 0 0 0.01 0.25
12:09 pm 12:09 Mostly Cloudy with Heavy Snow 28 -2 27 -3 93 93 NNW 15 24 29.85 1011 0 0 0.00 0.00
12:20 pm 12:20 Mostly Cloudy with Heavy Snow 29 -1.7 27 -2.8 92 92 NNW 12 19 29.85 1011 0 0 0.04 1.02
12:54 pm 12:54 Mostly Cloudy with Heavy Snow 29 -1.7 27 -2.8 92 92 NW 8 13 29.85 1011 0 0 0.12 3.05
1:05 pm 13:05 Mostly Cloudy with Heavy Snow 29 -1.7 27 -2.8 92 92 NW 9 15 29.85 1011 0 0 0.01 0.25
1:47 pm 13:47 Cloudy with Light Snow 30 -1 27 -3 86 86 NNW 17 28 29.88 1012 1 1 0.00 0.00
1:54 pm 13:54 Cloudy with Light Snow 30 -1.1 27 -2.8 88 88 NW 15 24 29.86 1011 1 1 0.07 1.78
2:04 pm 14:04 Cloudy with Light Snow 30 -1 27 -3 86 86 NW 16 26 29.88 1012 2 3 0.00 0.00
2:37 pm 14:37 Cloudy with Light Snow 29 -1.7 24 -4.4 82 82 NNW 15 24 29.91 1013 2 3 0.00 0.03
2:46 pm 14:46 Cloudy with Light Snow 29 -1.7 24 -4.4 82 82 NNW 17 28 29.91 1013 3 5 0.00 0.03
2:54 pm 14:54 Cloudy with Light Snow 29 -1.7 25 -3.9 85 85 NW 14 22 29.90 1013 2 3 0.00 0.03
3:03 pm 15:03 Windy with Snow Likely 28 -2 25 -4 86 86 NNW 21 33 29.94 1014 1 2 0.00 0.00
3:22 pm 15:22 Cloudy with Light Snow 29 -1.7 25 -3.9 85 85 NNW 16 26 29.94 1014 2 3 0.00 0.03
3:29 pm 15:29 Windy with Snow Likely 29 -1.7 24 -4.4 82 82 NNW 20 31 29.94 1014 3 4 0.00 0.03
3:41 pm 15:41 Windy with Snow Likely 29 -1.7 25 -3.9 85 85 NW 21 33 29.94 1014 3 4 0.00 0.03
3:50 pm 15:50 Windy with Snow Likely 28 -2 25 -4 86 86 NNW 28 44 29.97 1015 2 3 0.00 0.00
3:54 pm 15:54 Windy with Snow Likely 28 -2.2 23 -5 81 81 NW 25 41 29.93 1014 2 2 0.00 0.03
4:09 pm 16:09 Cloudy with Light Snow 28 -2.2 23 -5 81 81 NNW 18 30 29.97 1015 3 5 0.00 0.03
4:39 pm 16:39 Windy with Snow Likely 28 -2.2 23 -5 81 81 NNW 23 37 30.00 1016 2 3 0.00 0.03
4:54 pm 16:54 Windy with Snow Likely 28 -2.2 23 -5 81 81 NW 21 33 29.98 1015 2 3 0.00 0.03
5:04 pm 17:04 Windy with Snow Likely 28 -2 23 -5 80 80 NNW 21 33 30.00 1016 3 5 0.00 0.00
5:06 pm 17:06 Cloudy with Light Wintry Mix 28 -2 23 -5 80 80 NNW 22 35 30.00 1016 2 3 0.00 0.00
5:46 pm 17:46 Hazy 27 -3 21 -6 80 80 NW 15 24 30.06 1018 2 3 0.00 0.00
5:54 pm 17:54 Hazy 27 -2.8 22 -5.6 81 81 NNW 17 28 30.01 1016 2 3 0.00 0.03
6:01 pm 18:01 Partly Cloudy 27 -2.8 22 -5.6 81 81 NW 17 28 30.06 1018 9 14 0.00 0.00
6:20 pm 18:20 Mostly Cloudy 28 -2 21 -6 74 74 NW 15 24 30.06 1018 10 16 0.00 0.00
6:54 pm 18:54 Cloudy 29 -1.7 23 -5 78 78 NW 18 30 30.06 1018 10 16 0.00 0.00
7:54 pm 19:54 Cloudy 30 -1.1 23 -5 75 75 NW 25 41 30.08 1019 7 11 0.00 0.00
8:54 pm 20:54 Cloudy 29 -1.7 23 -5 78 78 NNW 16 26 30.10 1019 8 13 0.00 0.00
9:54 pm 21:54 Cloudy 30 -1.1 23 -5 75 75 NNW 13 20 30.13 1020 8 13 0.00 0.00
10:17 pm 22:17 Cloudy 30 -1.1 24 -4.4 79 79 NNW 14 22 30.15 1021 8 13 0.00 0.00
10:54 pm 22:54 Cloudy 31 -0.6 24 -4.4 76 76 NW 14 22 30.15 1021 9 14 0.00 0.00
11:24 pm 23:24 Cloudy 30 -1 25 -4 80 80 NNW 18 30 30.18 1022 9 14 0.00 0.00
11:54 pm 23:54 Cloudy 30 -1.1 24 -4.4 79 79 NW 18 30 30.16 1021 10 16 0.00 0.00

Powered by AerisWeather